Lid_Strength_Index
4 4 4 4 3 3 2 1 1 3 6 7 4 4 2 2 1 2 4 4 4 6 6 8 6 7 9 9
4 4 4 4 3 3 1 2 1 3 7 4 4 5 4 2 1 2 3 3 3 5 6 6 7 9 9 12
5 4 4 4 3 3 1 2 3 4 8 4 5 4 4 4 3 3 3 3 4 6 7 9 11 10 13 12
5 4 4 3 3 4 2 2 3 6 5 7 6 5 4 4 5 4 5 6 7 9 9 11 14 12 12 11
4 4 5 7 9 9 8 10 10 10 9 8 6 7 4 5 5 5 8 7 10 12 10 9 9 10 11 12
5 4 6 9 10 10 12 9 8 9 7 6 9 7 4 7 7 10 8 9 11 8 8 8 9 10 11 12
5 6 8 9 6 6 11 8 7 6 5 5 7 7 6 6 8 9 9 11 9 7 8 9 10 10 11 11
7 8 8 7 5 5 12 10 8 6 5 5 7 5 5 6 7 9 9 9 7 8 9 9 9 12 8 9
8 8 7 6 5 6 17 8 8 5 7 9 8 7 4 5 8 8 8 10 8 9 10 9 8 10 7 9
6 6 5 5 6 11 16 11 9 10 10 9 9 8 8 6 6 9 8 9 6 8 8 7 7 7 9 9
9 5 5 7 12 15 9 13 12 11 11 12 11 11 12 12 12 14 13 10 10 8 8 9 7 8 11 17
5 5 7 11 16 11 13 11 12 12 14 13 12 13 13 13 10 12 13 14 15 9 10 11 12 11 11 17
6 5 10 16 13 13 12 14 13 14 14 13 14 14 13 13 11 11 15 15 15 10 10 9 10 12 13 10
6 8 12 14 13 12 13 13 16 14 16 15 16 15 15 12 12 10 11 13 17 11 10 10 9 10 9 14
8 10 15 14 13 12 13 15 15 16 16 17 15 16 15 12 11 11 11 12 14 15 12 13 14 13 12 11
14 13 15 13 12 13 12 13 14 14 16 15 16 15 15 13 10 10 13 11 14 17 15 11 10 11 12 13
16 15 13 14 13 14 13 14 14 13 14 15 17 14 13 9 9 10 11 11 14 18 17 13 10 12 11 12